Location: Christian Reformed Church
(43.0975°N, 93.8113°W)
Time: 21:35:12
(UTC+00:00)

Thor Agena Rocket - Pass Details

Date: 13 December 2025
Orbit: 754 x 803 km, 99.1° (Epoch: 12 January)

Event Time Altitude Azimuth Distance (km) Brightness Sun altitude
Rises 12:16:29 0° 18° (NNE) 3,230 6.7 -14.4°
Reaches altitude 10° 12:18:50 10° 22° (NNE) 2,296 6.0 -14.0°
Maximum altitude 12:23:48 58° 102° (ESE) 879 4.2 -13.1°
Drops below altitude 10° 12:28:43 10° 181° (S) 2,272 6.2 -12.3°
Sets 12:31:02 0° 185° (S) 3,194 6.9 -11.9°
